Hourly Weather Chabusy

Today, 13 June, Sunday

Time Temperature Precipitation Wind Pressure Humidity
00:00 +14°C° 0.1 mm 3 mps 741 mmHg 89%
01:00 +14°C° 0.1 mm 3 mps 740 mmHg 91%
02:00 +14°C° 0.1 mm 3 mps 740 mmHg 93%
03:00 +13°C° 0.5 mm 3 mps 739 mmHg 94%
04:00 +13°C° 0.5 mm 4 mps 739 mmHg 95%
05:00 +13°C° 0.5 mm 4 mps 739 mmHg 96%
06:00 +13°C° 2.1 mm 4 mps 739 mmHg 96%
07:00 +12°C° 2.1 mm 4 mps 740 mmHg 96%
08:00 +12°C° 2.1 mm 4 mps 740 mmHg 95%
09:00 +12°C° 1.4 mm 4 mps 740 mmHg 95%
10:00 +12°C° 1.4 mm 4 mps 741 mmHg 95%
11:00 +12°C° 1.4 mm 4 mps 741 mmHg 95%
12:00 +13°C° 0.5 mm 4 mps 742 mmHg 93%
13:00 +13°C° 0.5 mm 4 mps 742 mmHg 91%
14:00 +14°C° 0.5 mm 3 mps 742 mmHg 89%
15:00 +14°C° 0.3 mm 4 mps 742 mmHg 87%
16:00 +15°C° 0.3 mm 4 mps 742 mmHg 86%
17:00 +15°C° 0.3 mm 4 mps 743 mmHg 84%
18:00 +14°C° 0.1 mm 4 mps 743 mmHg 86%
19:00 +13°C° 0.1 mm 3 mps 743 mmHg 89%
20:00 +14°C° 0.1 mm 2 mps 744 mmHg 92%
21:00 +12°C° 0 mm 3 mps 744 mmHg 92%
22:00 +12°C° 0 mm 3 mps 744 mmHg 93%
23:00 +12°C° 0 mm 3 mps 744 mmHg 94%

Tomorrow, 14 June, Monday

Time Temperature Precipitation Wind Pressure Humidity
00:00 +12°C° 0 mm 3 mps 744 mmHg 94%
01:00 +12°C° 0 mm 4 mps 745 mmHg 95%
02:00 +12°C° 0 mm 4 mps 745 mmHg 96%
03:00 +12°C° 0 mm 4 mps 745 mmHg 96%
04:00 +12°C° 0 mm 4 mps 745 mmHg 95%
05:00 +12°C° 0 mm 4 mps 746 mmHg 95%
06:00 +12°C° 0 mm 4 mps 746 mmHg 95%
07:00 +12°C° 0 mm 4 mps 747 mmHg 94%
08:00 +12°C° 0 mm 4 mps 747 mmHg 94%
09:00 +13°C° 0 mm 3 mps 748 mmHg 93%
10:00 +13°C° 0 mm 3 mps 748 mmHg 92%
11:00 +13°C° 0 mm 3 mps 749 mmHg 91%
12:00 +14°C° 0 mm 3 mps 749 mmHg 88%
13:00 +16°C° 0 mm 3 mps 749 mmHg 85%
14:00 +16°C° 0 mm 3 mps 749 mmHg 83%
15:00 +17°C° 0 mm 3 mps 749 mmHg 83%
16:00 +17°C° 0 mm 2 mps 749 mmHg 82%
17:00 +17°C° 0 mm 2 mps 749 mmHg 82%
18:00 +16°C° 0 mm 2 mps 749 mmHg 84%
19:00 +16°C° 0 mm 2 mps 749 mmHg 86%
20:00 +16°C° 0 mm 2 mps 750 mmHg 88%
21:00 +15°C° 0 mm 2 mps 750 mmHg 90%
22:00 +14°C° 0 mm 2 mps 750 mmHg 92%
23:00 +13°C° 0 mm 2 mps 750 mmHg 94%

Day after tomorrow, 15 June, Tuesday

Time Temperature Precipitation Wind Pressure Humidity
00:00 +13°C° 0 mm 2 mps 750 mmHg 94%
01:00 +12°C° 0 mm 2 mps 750 mmHg 95%
02:00 +12°C° 0 mm 2 mps 750 mmHg 95%
03:00 +12°C° 0 mm 2 mps 750 mmHg 95%
04:00 +12°C° 0 mm 2 mps 750 mmHg 94%
05:00 +12°C° 0 mm 2 mps 750 mmHg 94%
06:00 +14°C° 0 mm 2 mps 750 mmHg 86%
07:00 +16°C° 0 mm 3 mps 750 mmHg 79%
08:00 +18°C° 0 mm 3 mps 750 mmHg 72%
09:00 +20°C° 0 mm 3 mps 750 mmHg 67%
10:00 +21°C° 0 mm 3 mps 750 mmHg 63%
11:00 +22°C° 0 mm 4 mps 750 mmHg 58%
12:00 +22°C° 0 mm 4 mps 749 mmHg 56%
13:00 +22°C° 0 mm 4 mps 749 mmHg 54%
14:00 +23°C° 0 mm 4 mps 749 mmHg 51%
15:00 +22°C° 0 mm 4 mps 749 mmHg 54%
16:00 +22°C° 0 mm 3 mps 749 mmHg 56%
17:00 +22°C° 0 mm 3 mps 748 mmHg 59%
18:00 +21°C° 0 mm 3 mps 748 mmHg 67%
19:00 +19°C° 0 mm 3 mps 748 mmHg 76%
20:00 +18°C° 0 mm 3 mps 748 mmHg 85%
21:00 +17°C° 0 mm 2 mps 748 mmHg 88%
22:00 +16°C° 0 mm 2 mps 748 mmHg 91%
23:00 +15°C° 0 mm 2 mps 748 mmHg 94%

16 June, Wednesday

Time Temperature Precipitation Wind Pressure Humidity
00:00 +15°C° 0 mm 2 mps 748 mmHg 95%
01:00 +15°C° 0 mm 2 mps 748 mmHg 95%
02:00 +14°C° 0 mm 3 mps 749 mmHg 95%
03:00 +14°C° 0 mm 3 mps 749 mmHg 95%
04:00 +14°C° 0 mm 3 mps 749 mmHg 96%
05:00 +14°C° 0 mm 3 mps 749 mmHg 96%
06:00 +16°C° 0 mm 3 mps 749 mmHg 88%
07:00 +17°C° 0 mm 3 mps 750 mmHg 79%
08:00 +19°C° 0 mm 3 mps 750 mmHg 70%
09:00 +20°C° 0 mm 4 mps 750 mmHg 66%
10:00 +21°C° 0 mm 4 mps 750 mmHg 61%
11:00 +22°C° 0 mm 4 mps 750 mmHg 56%
12:00 +22°C° 0 mm 4 mps 750 mmHg 53%
13:00 +23°C° 0 mm 4 mps 750 mmHg 50%
14:00 +23°C° 0 mm 4 mps 751 mmHg 48%
15:00 +23°C° 0 mm 4 mps 751 mmHg 50%
16:00 +23°C° 0 mm 4 mps 751 mmHg 53%
17:00 +22°C° 0 mm 4 mps 751 mmHg 56%
18:00 +20°C° 0 mm 4 mps 751 mmHg 62%
19:00 +19°C° 0 mm 3 mps 752 mmHg 69%
20:00 +17°C° 0 mm 3 mps 752 mmHg 75%
21:00 +14°C° 0 mm 3 mps 752 mmHg 77%
22:00 +13°C° 0 mm 3 mps 752 mmHg 80%
23:00 +12°C° 0 mm 3 mps 753 mmHg 83%

17 June, Thursday

Time Temperature Precipitation Wind Pressure Humidity
00:00 +12°C° 0 mm 3 mps 753 mmHg 85%
01:00 +12°C° 0 mm 3 mps 753 mmHg 87%
02:00 +11°C° 0 mm 3 mps 753 mmHg 88%
03:00 +11°C° 0 mm 3 mps 754 mmHg 87%
04:00 +11°C° 0 mm 3 mps 754 mmHg 85%
05:00 +11°C° 0 mm 3 mps 754 mmHg 83%
06:00 +13°C° 0 mm 3 mps 754 mmHg 76%
07:00 +17°C° 0 mm 3 mps 754 mmHg 69%
08:00 +19°C° 0 mm 4 mps 755 mmHg 62%
09:00 +20°C° 0 mm 4 mps 755 mmHg 57%
10:00 +22°C° 0 mm 4 mps 755 mmHg 52%
11:00 +23°C° 0 mm 4 mps 755 mmHg 47%
12:00 +25°C° 0 mm 4 mps 755 mmHg 46%
13:00 +25°C° 0 mm 4 mps 755 mmHg 44%
14:00 +26°C° 0 mm 4 mps 755 mmHg 43%
15:00 +25°C° 0 mm 3 mps 755 mmHg 46%
16:00 +25°C° 0 mm 3 mps 755 mmHg 50%
17:00 +25°C° 0 mm 3 mps 755 mmHg 53%
18:00 +22°C° 0 mm 3 mps 755 mmHg 61%
19:00 +20°C° 0 mm 3 mps 755 mmHg 69%
20:00 +19°C° 0 mm 3 mps 755 mmHg 76%
21:00 +17°C° 0 mm 3 mps 755 mmHg 79%
22:00 +16°C° 0 mm 3 mps 755 mmHg 83%
23:00 +14°C° 0 mm 3 mps 755 mmHg 86%

18 June, Friday

Time Temperature Precipitation Wind Pressure Humidity
00:00 +15°C° 0 mm 2 mps 755 mmHg 86%
01:00 +14°C° 0 mm 2 mps 756 mmHg 87%
02:00 +14°C° 0 mm 2 mps 756 mmHg 88%
03:00 +14°C° 0 mm 2 mps 756 mmHg 88%
04:00 +14°C° 0 mm 2 mps 756 mmHg 88%
05:00 +14°C° 0 mm 2 mps 756 mmHg 88%
06:00 +16°C° 0 mm 2 mps 756 mmHg 81%
07:00 +18°C° 0 mm 3 mps 756 mmHg 74%
08:00 +20°C° 0 mm 3 mps 756 mmHg 66%
09:00 +21°C° 0 mm 3 mps 756 mmHg 61%
10:00 +23°C° 0 mm 4 mps 756 mmHg 56%
11:00 +25°C° 0 mm 4 mps 756 mmHg 51%
12:00 +25°C° 0 mm 4 mps 756 mmHg 49%
13:00 +26°C° 0 mm 4 mps 755 mmHg 47%
14:00 +26°C° 0 mm 4 mps 755 mmHg 45%
15:00 +26°C° 0 mm 4 mps 755 mmHg 49%
16:00 +26°C° 0 mm 4 mps 755 mmHg 52%
17:00 +26°C° 0 mm 4 mps 755 mmHg 56%
18:00 +24°C° 0 mm 3 mps 755 mmHg 63%
19:00 +21°C° 0 mm 3 mps 755 mmHg 71%
20:00 +19°C° 0 mm 3 mps 755 mmHg 79%
21:00 +18°C° 0 mm 3 mps 755 mmHg 83%
22:00 +17°C° 0 mm 2 mps 755 mmHg 86%
23:00 +16°C° 0 mm 2 mps 756 mmHg 90%
Show more

We Need Your Consent

Meteoprog and our Service Providers may store and access personal data such as cookies, device identifiers or other similar technologies on your device and process such data to personalise content and ads, as well as provide social media features and to analyse the traffic.

  • Store and/or access information on your device

    Cookies, device identifiers or other information can be stored or accessed on your device for the purposes indicated above.

  • Personalised ads and content, ad and content measurement, audience insights, and products development

    Ads and content can be personalised based on a profile. More data can be added to better personalise ads and content. Ad and content performance can be measured. Insights about the audience who saw the ads and content can be derived. Such data can be used to develop or improve user’s experience, systems and software.

By clicking ‘I Agree’ you will allow the use of indicated cookies, device identifiers, web beacons or other similar technologies. Your settings can be changed in the browser on your device.

For certain purposes, legitimate interests may be relied on, rather than consent. You can read more about this in our Privacy and Cookie Policy.